[[{"header":{"parameterUnit":"m.s-1","parameterCategory":1,"la1":30.2991,"la2":30.254,"lo1":-89.0895,"lo2":-89.0444,"dy":0.0017,"dx":0.0017,"nx":28,"ny":28,"refTime":"2025-01-26T09:00:00:Z","depth":0,"parameterNumber":2,"parameterNumberName":"U-component_of_WINDS"},"data":[0,0,0,0,0,0,0,0,0,0,0,0,0,0,0,0,0,0,0,0,0,0,0,0,0,0,0,0,0,0,0,0,0,0,0,0,0,0,0,0,0,0,0,0,0,0,0,0,0,0,0,0,0,0,0,0,0,0,-4.0351,-4.035,0,-4.029,-4.0289,-4.0288,-4.0047,-4.0041,-4.0036,-4.003,-3.9973,-3.9976,-3.998,0,0,0,0,0,0,0,0,0,0,0,0,0,-4.0263,-4.0266,-4.0351,-4.035,-4.0349,-4.029,-4.0289,-4.0288,-4.0048,-4.0041,-4.0034,-4.0028,-3.9972,-3.9976,-3.998,0,0,0,0,0,0,0,0,0,0,0,0,0,-4.0262,-4.0267,-4.0351,-4.0222,-4.021,-4.029,-4.0289,-4.0288,-4.0049,-4.0041,-4.0032,-4.0025,-3.997,-3.9976,-3.9981,-4.0182,0,0,-3.9998,-4.0,0,0,0,0,0,0,0,0,-4.0262,-4.0265,-4.0242,-4.0231,-4.0217,-4.0167,-4.0237,-4.0253,-4.0051,-4.011,-4.003,-4.002,-4.0045,-4.0043,-4.005,-4.018,-4.0177,-3.9998,-4.0002,-4.0004,-4.0005,0,0,0,0,0,0,0,-4.0263,-4.0267,-4.0327,-4.0242,-4.0227,-4.0168,-4.0159,-4.0239,-4.0125,-4.0104,-4.0087,-4.0083,-4.0036,-4.0046,-4.0047,-4.0176,-3.9998,-4.0003,-4.0006,-4.0009,-4.0468,-4.0476,0,0,0,0,0,0,-4.028,-4.0268,-4.0329,-4.0325,-4.022,-4.0177,-4.0166,-4.0192,-4.0124,-4.0105,-4.009,-4.0072,-4.0041,-4.0041,-4.0045,-4.0275,-4.0004,-4.0009,-4.0012,-4.0459,-4.047,-4.048,0,0,0,0,0,0,-4.0279,-4.0288,-4.0331,-4.0292,-4.0293,-4.0187,-4.0218,-4.0195,-4.0204,-4.0112,-4.0091,-4.012,-4.0034,-4.0037,-4.0149,-4.027,-4.0012,-4.0017,-4.0449,-4.0462,-4.0475,-4.0741,0,0,0,0,0,0,-4.0278,-4.0289,-4.0364,-4.0295,-4.0296,-4.0437,-4.0225,-4.02,-4.0214,-4.0189,-4.0135,-4.0118,-4.0028,-4.0143,-4.0155,-4.0273,-4.0021,-4.0437,-4.0455,-4.0471,-4.0721,-4.0761,-4.0796,0,0,0,0,0,-4.0276,-4.0442,-4.0369,-4.0377,-4.0386,-4.0444,-4.0444,-4.0335,-4.0224,-4.0299,-4.024,-4.012,-4.0255,-4.0156,-4.0168,-4.029,-4.0429,-4.045,-4.0469,-4.0703,-4.0753,-4.0795,0,0,0,0,0,0,-4.0529,-4.043,-4.0348,-4.0497,-4.0481,-4.0403,-4.0494,-4.0391,-4.0407,-4.0384,-4.0249,-4.0239,-4.0372,-4.0342,-4.0233,-4.0481,-4.0322,-4.0346,-4.0496,-4.0543,-4.058,-4.0584,-4.0025,0,0,0,0,0,-4.0602,-4.0655,-4.0567,-4.0707,-4.0703,-4.0601,-4.0622,-4.0539,-4.0517,-4.0509,-4.0458,-4.0444,-4.0482,-4.051,-4.0541,-4.0715,-4.07,-4.0805,-4.0843,-4.0874,-4.0896,-4.0986,-4.1032,-4.0545,-4.0545,-4.0545,0,0,-4.0753,-4.0706,-4.0749,-4.0757,-4.0734,-4.0794,-4.0596,-4.0668,-4.0711,-4.052,-4.0623,-4.0587,-4.0561,-4.0705,-4.0766,-4.0684,-4.1027,-4.09,-4.0926,-4.093,-4.1012,-4.1058,-4.1099,-4.0559,-4.0557,-4.0554,0,0,-4.106,-4.103,-4.1142,-4.1124,-4.1092,-4.1023,-4.1051,-4.0989,-4.0956,-4.1057,-4.0915,-4.0966,-4.1035,-4.1023,-4.1026,-4.1329,-4.1219,-4.1343,-4.1541,-4.163,-4.1669,-4.1702,-4.1811,-4.1851,-4.1365,-4.1366,-4.1366,0,-4.1253,-4.1336,-4.1214,-4.1295,-4.1303,-4.1131,-4.1246,-4.1234,-4.1215,-4.1226,-4.1133,-4.1217,-4.1188,-4.1327,-4.1401,-4.1409,-4.1437,-4.1348,-4.1673,-4.1705,-4.1734,-4.1836,-4.1878,-4.1381,-4.1379,-4.1377,-4.1376,0,-4.1574,-4.1635,-4.173,-4.1714,-4.1733,-4.1831,-4.1725,-4.1759,-4.1675,-4.1617,-4.1723,-4.1681,-4.1701,-4.1728,-4.1647,-4.1857,-4.1806,-4.1696,-4.1533,-4.1798,-4.1892,-4.193,-4.1403,-4.1397,-4.1393,-4.1389,0,0,-4.2039,-4.1954,-4.1991,-4.1982,-4.1934,-4.1979,-4.207,-4.2087,-4.2119,-4.2112,-4.2185,-4.2248,-4.2146,-4.2149,-4.2066,-4.2145,-4.2388,-4.2024,-4.2021,-4.2094,-4.2617,-4.2701,-4.2748,-4.2315,-4.2322,-4.2328,-4.262,0,-4.2331,-4.2478,-4.2372,-4.2538,-4.2593,-4.2431,-4.251,-4.2491,-4.2439,-4.2478,-4.2421,-4.2468,-4.2329,-4.233,-4.2401,-4.2344,-4.2492,-4.2321,-4.2384,-4.2387,-4.2395,-4.2797,-4.2885,-4.3163,-4.2655,-4.2662,-4.2666,0,-4.2691,-4.2698,-4.287,-4.2811,-4.283,-4.2903,-4.291,-4.295,-4.2925,-4.2882,-4.2887,-4.2783,-4.2869,-4.271,-4.2827,-4.2714,-4.2733,-4.271,-4.2717,-4.2719,-4.2543,-4.281,-4.3248,-4.3291,-4.2722,-4.2718,-4.2714,0,-4.3012,-4.3066,-4.3175,-4.3172,-4.3106,-4.3161,-4.3137,-4.3103,-4.3121,-4.3129,-4.3139,-4.3158,-4.3168,-4.3186,-4.309,-4.2983,-4.3221,-4.3053,-4.3189,-4.3192,-4.3246,-4.3244,-4.3694,-4.3259,-4.3259,-4.3258,-4.3257,0,-4.3349,-4.3461,-4.3318,-4.3386,-4.3507,-4.3384,-4.3508,-4.3466,-4.3438,-4.3496,-4.3358,-4.3416,-4.3286,-4.3331,-4.3258,-4.3367,-4.3373,-4.3341,-4.332,-4.3354,-4.3358,-4.3365,-4.3343,-4.3269,-4.3266,-4.3264,-4.3262,0,-4.3729,-4.3637,-4.3746,-4.3675,-4.366,-4.3752,-4.3691,-4.3752,-4.3691,-4.3766,-4.3777,-4.3682,-4.3728,-4.3634,-4.3668,-4.3618,-4.3773,-4.3721,-4.3781,-4.3766,-4.3907,-4.3895,-4.4377,-4.4434,-4.3964,-4.3968,-4.3972,0,-4.395,-4.4031,-4.3969,-4.3997,-4.398,-4.4027,-4.4043,-4.3927,-4.3951,-4.3929,-4.3993,-4.4027,-4.4047,-4.4129,-4.4064,-4.409,-4.4038,-4.4205,-4.4041,-4.4072,-4.4041,-4.4037,-4.4045,-4.4239,-4.4245,-4.425,-4.4253,0,-4.4352,-4.4303,-4.4331,-4.4345,-4.4369,-4.4374,-4.437,-4.4402,-4.4278,-4.4312,-4.4356,-4.4372,-4.4406,-4.4442,-4.4453,-4.4429,-4.4323,-4.4306,-4.4338,-4.4373,-4.4405,-4.439,-4.3873,-4.4295,-4.4291,-4.4288,-4.4286,-4.4284,-4.4658,-4.4724,-4.469,-4.4727,-4.4711,-4.4711,-4.4764,-4.4709,-4.4743,-4.476,-4.469,-4.4751,-4.4725,-4.4728,-4.4716,-4.4762,-4.4688,-4.4735,-4.4747,-4.4761,-4.4784,-4.4397,-4.4764,-4.4763,-4.4761,-4.476,-4.4759,0,-4.5053,-4.5023,-4.5059,-4.5056,-4.5086,-4.4981,-4.4971,-4.5004,-4.5058,-4.5042,-4.5065,-4.5118,-4.5152,-4.5091,-4.5115,-4.5165,-4.5117,-4.5176,-4.5171,-4.5168,-4.4849,-4.4818,-4.5214,-4.5214,-4.5214,-4.5214,-4.5214,-4.5214,-4.5262,-4.5367,-4.5315,-4.5411,-4.538,-4.5437,-4.5441,-4.5441,-4.5427,-4.5491,-4.5518,-4.5477,-4.5443,-4.5465,-4.5493,-4.5474,-4.549,-4.5566,-4.5531,-4.5234,-4.519,-4.5147,-4.5118,-4.5571,-4.5571,-4.5845,-4.5847,-4.5849]},{"header":{"parameterUnit":"m.s-1","parameterCategory":1,"la1":30.2991,"la2":30.254,"lo1":-89.0895,"lo2":-89.0444,"dy":0.0017,"dx":0.0017,"nx":28,"ny":28,"refTime":"2025-01-26T09:00:00:Z","depth":0,"parameterNumber":3,"parameterNumberName":"V-component_of_WINDS"},"data":[0,0,0,0,0,0,0,0,0,0,0,0,0,0,0,0,0,0,0,0,0,0,0,0,0,0,0,0,0,0,0,0,0,0,0,0,0,0,0,0,0,0,0,0,0,0,0,0,0,0,0,0,0,0,0,0,0,0,1.1282,1.1281,0,1.1169,1.1168,1.1166,1.1114,1.1114,1.1114,1.1114,1.0989,1.0986,1.0982,0,0,0,0,0,0,0,0,0,0,0,0,0,1.1443,1.1441,1.1282,1.1281,1.1279,1.1169,1.1168,1.1166,1.1114,1.1114,1.1114,1.1114,1.099,1.0986,1.0982,0,0,0,0,0,0,0,0,0,0,0,0,0,1.1356,1.144,1.1282,1.124,1.1235,1.117,1.1168,1.1166,1.1114,1.1114,1.1114,1.1114,1.0992,1.0987,1.0982,1.0946,0,0,1.0966,1.0964,0,0,0,0,0,0,0,0,1.1361,1.135,1.1248,1.1243,1.1238,1.1156,1.1179,1.1092,1.1114,1.116,1.1114,1.1115,1.1044,1.1034,1.1013,1.094,1.0935,1.0965,1.0962,1.096,1.0959,0,0,0,0,0,0,0,1.1367,1.1355,1.1237,1.1246,1.124,1.1224,1.1212,1.1162,1.1102,1.1156,1.1152,1.114,1.1041,1.1018,1.1009,1.0933,1.0966,1.0961,1.0958,1.0956,1.0824,1.0823,0,0,0,0,0,0,1.1381,1.136,1.1241,1.1234,1.1301,1.1221,1.1207,1.1182,1.1102,1.1091,1.114,1.1138,1.1026,1.1015,1.1005,1.0957,1.096,1.0955,1.0952,1.0824,1.0824,1.0823,0,0,0,0,0,0,1.1385,1.1371,1.1245,1.1296,1.1279,1.1218,1.119,1.1179,1.1156,1.109,1.1078,1.1127,1.1026,1.1012,1.0961,1.0952,1.0953,1.0948,1.0825,1.0824,1.0823,1.0862,0,0,0,0,0,0,1.139,1.1373,1.1361,1.1296,1.1276,1.1207,1.1189,1.1177,1.1149,1.1145,1.1076,1.1064,1.1025,1.0969,1.0956,1.0945,1.0944,1.0825,1.0824,1.0824,1.0861,1.0863,1.0864,0,0,0,0,0,1.1396,1.1375,1.1361,1.1347,1.1261,1.1207,1.1195,1.1153,1.1148,1.1134,1.1092,1.1066,1.0955,1.0965,1.0949,1.0936,1.0826,1.0825,1.0824,1.0861,1.0862,1.0864,0,0,0,0,0,0,1.1438,1.1366,1.1349,1.1308,1.1264,1.1198,1.1179,1.1157,1.1111,1.1109,1.1056,1.1041,1.0995,1.096,1.0972,1.0897,1.0888,1.0884,1.0921,1.0922,1.0924,1.0932,1.094,0,0,0,0,0,1.1443,1.1408,1.1345,1.1314,1.1294,1.1241,1.1215,1.1187,1.1138,1.1119,1.1072,1.1024,1.0977,1.0948,1.0902,1.0856,1.0839,1.0839,1.0841,1.0842,1.0839,1.081,1.0809,1.082,1.082,1.082,0,0,1.1451,1.1408,1.1388,1.1322,1.1285,1.1247,1.1225,1.1186,1.1156,1.1112,1.1062,1.1026,1.0968,1.0919,1.0895,1.0889,1.0832,1.0841,1.0843,1.0838,1.0809,1.0808,1.0807,1.082,1.082,1.082,0,0,1.1448,1.1413,1.1382,1.1346,1.1291,1.1256,1.1248,1.1186,1.1161,1.1111,1.1076,1.1038,1.096,1.092,1.0889,1.087,1.0844,1.0856,1.0862,1.0835,1.0834,1.0833,1.0824,1.0822,1.0853,1.0853,1.0853,0,1.1465,1.141,1.1369,1.1332,1.1302,1.1263,1.123,1.1195,1.1127,1.1106,1.1101,1.1002,1.0959,1.09,1.0896,1.0872,1.086,1.0863,1.0838,1.0837,1.0835,1.0826,1.0823,1.0855,1.0854,1.0854,1.0854,0,1.1432,1.1394,1.1376,1.1314,1.1282,1.1247,1.1198,1.117,1.1144,1.1108,1.1056,1.1004,1.0946,1.093,1.0903,1.0866,1.0864,1.0849,1.0839,1.0836,1.0827,1.0823,1.0857,1.0856,1.0856,1.0856,0,0,1.1452,1.1369,1.1362,1.1333,1.1269,1.1237,1.1199,1.1145,1.1121,1.1075,1.104,1.0975,1.0961,1.0926,1.0894,1.087,1.0855,1.0857,1.0855,1.0858,1.0809,1.082,1.0817,1.0838,1.0838,1.0837,1.0813,0,1.1439,1.1373,1.1334,1.1282,1.1245,1.1207,1.1173,1.1128,1.1093,1.1054,1.1014,1.0968,1.0954,1.0932,1.0907,1.0863,1.0845,1.0864,1.0802,1.08,1.0817,1.0812,1.0823,1.0803,1.0809,1.0809,1.0808,0,1.1415,1.1373,1.1318,1.1257,1.124,1.1211,1.1158,1.1122,1.1069,1.1045,1.1006,1.0975,1.0929,1.0924,1.0859,1.0873,1.0845,1.0819,1.0817,1.0809,1.0804,1.0802,1.0796,1.0793,1.0802,1.0803,1.0803,0,1.1434,1.1362,1.132,1.1296,1.1225,1.1205,1.1173,1.1121,1.1091,1.1043,1.1023,1.0969,1.094,1.0898,1.0851,1.0851,1.079,1.0781,1.0766,1.0767,1.0754,1.0755,1.0743,1.0738,1.0738,1.0738,1.0739,0,1.1423,1.139,1.1327,1.1301,1.1263,1.1217,1.1179,1.1144,1.1098,1.1062,1.1024,1.099,1.0931,1.0889,1.0852,1.0803,1.079,1.0767,1.0757,1.077,1.0772,1.075,1.0749,1.0738,1.0738,1.0738,1.0738,0,1.1437,1.1394,1.1345,1.1282,1.1265,1.1239,1.1183,1.1154,1.1118,1.1072,1.1059,1.1,1.0948,1.0898,1.0828,1.0803,1.0753,1.0741,1.0772,1.0767,1.0754,1.0756,1.0726,1.0719,1.0721,1.0721,1.0721,0,1.1433,1.1407,1.1342,1.1316,1.1287,1.1246,1.1215,1.1168,1.1137,1.1075,1.1053,1.0999,1.0954,1.0872,1.0821,1.0766,1.0752,1.0745,1.0743,1.0756,1.0749,1.0751,1.0747,1.0746,1.0746,1.0746,1.0746,0,1.1429,1.1408,1.1368,1.1319,1.1284,1.1243,1.1199,1.118,1.1124,1.109,1.1039,1.1004,1.0933,1.0879,1.0818,1.0782,1.0754,1.0748,1.0741,1.0753,1.0772,1.076,1.0774,1.0748,1.0748,1.0748,1.0748,1.0748,1.1432,1.1407,1.1357,1.1312,1.1275,1.1236,1.1206,1.1166,1.1123,1.1064,1.1038,1.0985,1.093,1.0847,1.0811,1.0766,1.0759,1.075,1.0747,1.0746,1.0748,1.078,1.0755,1.0755,1.0755,1.0755,1.0755,0,1.1425,1.1391,1.1351,1.1293,1.1256,1.1236,1.1187,1.1157,1.1112,1.1065,1.1022,1.0961,1.0908,1.0853,1.0796,1.0771,1.0756,1.0757,1.0758,1.0749,1.0758,1.0769,1.077,1.077,1.077,1.077,1.077,1.077,1.1417,1.1374,1.1347,1.1284,1.1249,1.1199,1.1173,1.1135,1.1097,1.1032,1.0989,1.0954,1.0903,1.0842,1.0791,1.0776,1.0756,1.076,1.0741,1.075,1.0749,1.0748,1.0758,1.0757,1.0757,1.0736,1.0736,1.0736]}]]